2023/01/31 00:00:00,59.2,-1.4
2023/01/31 00:10:00,59.5,-1.3
2023/01/31 00:20:00,59.3,-1.7
2023/01/31 00:30:00,59.3,-1.8
2023/01/31 00:40:00,59.3,-2.4
2023/01/31 00:50:00,59.3,-2.1
2023/01/31 01:00:00,59.3,-2.8
2023/01/31 01:10:00,59.3,-2.7
2023/01/31 01:20:00,59.2,-3.2
2023/01/31 01:30:00,59.1,-3.7
2023/01/31 01:40:00,58.8,-3.3
2023/01/31 01:50:00,58.7,-2.9
2023/01/31 02:00:00,58.7,-2.4
2023/01/31 02:10:00,58.6,-2.7
2023/01/31 02:20:00,58.5,-2.5
2023/01/31 02:30:00,58.4,-2.2
2023/01/31 02:40:00,58.3,-2.4
2023/01/31 02:50:00,58.2,-2.1
2023/01/31 03:00:00,58.2,-2.4
2023/01/31 03:10:00,58.1,-2.0
2023/01/31 03:20:00,58.0,-2.0
2023/01/31 03:30:00,57.8,-2.3
2023/01/31 03:40:00,57.9,-1.9
2023/01/31 03:50:00,58.1,-1.9
2023/01/31 04:00:00,58.2,-2.4
2023/01/31 04:10:00,58.5,-1.8
2023/01/31 04:20:00,58.5,-2.4
2023/01/31 04:30:00,58.5,-2.2
2023/01/31 04:40:00,58.4,-2.4
2023/01/31 04:50:00,58.2,-2.7
2023/01/31 05:00:00,58.2,-3.2
2023/01/31 05:10:00,58.2,-3.1
2023/01/31 05:20:00,58.1,-3.0
2023/01/31 05:30:00,58.0,-3.0
2023/01/31 05:40:00,57.8,-2.9
2023/01/31 05:50:00,57.6,-2.8
2023/01/31 06:00:00,57.5,-2.7
2023/01/31 06:10:00,57.5,-2.3
2023/01/31 06:20:00,57.4,-2.6
2023/01/31 06:30:00,57.3,-2.5
2023/01/31 06:40:00,57.2,-2.8
2023/01/31 06:50:00,57.1,-3.2
2023/01/31 07:00:00,57.0,-2.5
2023/01/31 07:10:00,57.0,-2.7
2023/01/31 07:20:00,57.0,-2.6
2023/01/31 07:30:00,56.9,-2.4
2023/01/31 07:40:00,56.9,-2.0
2023/01/31 07:50:00,57.2,-2.0
2023/01/31 08:00:00,57.2,-1.6
2023/01/31 08:10:00,57.0,-1.8
2023/01/31 08:20:00,57.3,-1.2
2023/01/31 08:30:00,57.7,-1.2
2023/01/31 08:40:00,57.5,-1.5
2023/01/31 08:50:00,56.8,-0.4
2023/01/31 09:00:00,57.0,-0.8
2023/01/31 09:10:00,57.4,-0.4
2023/01/31 09:20:00,57.5,-0.5
2023/01/31 09:30:00,57.1,-0.2
2023/01/31 09:40:00,56.6, 1.2
2023/01/31 09:50:00,56.4, 2.4
2023/01/31 10:00:00,56.3, 3.2
2023/01/31 10:10:00,56.2, 2.9
2023/01/31 10:20:00,56.1, 2.5
2023/01/31 10:30:00,56.2, 2.4
2023/01/31 10:40:00,55.9, 5.8
2023/01/31 10:50:00,55.1, 9.6
2023/01/31 11:00:00,53.2,17.1
2023/01/31 11:10:00,52.5,18.7
2023/01/31 11:20:00,52.7,10.7
2023/01/31 11:30:00,53.0, 9.7
2023/01/31 11:40:00,52.9, 8.5
2023/01/31 11:50:00,51.9,10.0
2023/01/31 12:00:00,51.3, 9.8
2023/01/31 12:10:00,50.5,11.0
2023/01/31 12:20:00,50.7, 9.8
2023/01/31 12:30:00,50.2, 6.8
2023/01/31 12:40:00,50.4, 7.4
2023/01/31 12:50:00,50.5, 6.2
2023/01/31 13:00:00,50.3, 5.3
2023/01/31 13:10:00,49.6, 6.0
2023/01/31 13:20:00,49.5, 6.3
2023/01/31 13:30:00,49.6, 5.8
2023/01/31 13:40:00,49.3, 8.1
2023/01/31 13:50:00,49.1, 6.3
2023/01/31 14:00:00,49.1, 7.2
2023/01/31 14:10:00,49.0, 7.8
2023/01/31 14:20:00,48.7, 9.1
2023/01/31 14:30:00,48.6, 9.2
2023/01/31 14:40:00,48.6, 5.8
2023/01/31 14:50:00,48.7, 4.6
2023/01/31 15:00:00,48.6, 4.9
2023/01/31 15:10:00,48.6, 4.0
2023/01/31 15:20:00,48.6, 3.5
2023/01/31 15:30:00,48.6, 2.6
2023/01/31 15:40:00,48.6, 1.7
2023/01/31 15:50:00,48.5, 1.3
2023/01/31 16:00:00,48.5, 0.7
2023/01/31 16:10:00,48.6, 0.5
2023/01/31 16:20:00,48.6, 0.7
2023/01/31 16:30:00,48.6, 0.5
2023/01/31 16:40:00,48.3,-0.1
2023/01/31 16:50:00,48.2, 0.4
2023/01/31 17:00:00,48.3,-0.4
2023/01/31 17:10:00,48.2,-0.7
2023/01/31 17:20:00,48.1,-1.0
2023/01/31 17:30:00,48.3,-0.8
2023/01/31 17:40:00,48.4,-1.3
2023/01/31 17:50:00,48.3,-1.4
2023/01/31 18:00:00,48.4,-1.1
2023/01/31 18:10:00,48.4,-0.7
2023/01/31 18:20:00,48.4,-1.2
2023/01/31 18:30:00,48.3,-1.3
2023/01/31 18:40:00,48.3,-1.8
2023/01/31 18:50:00,48.2,-2.1
2023/01/31 19:00:00,48.0,-1.9
2023/01/31 19:10:00,47.9,-1.5
2023/01/31 19:20:00,47.8,-1.9
2023/01/31 19:30:00,47.7,-2.0
2023/01/31 19:40:00,47.7,-2.2
2023/01/31 19:50:00,47.6,-2.1
2023/01/31 20:00:00,47.6,-2.3
2023/01/31 20:10:00,47.6,-1.7
2023/01/31 20:20:00,47.6,-2.4
2023/01/31 20:30:00,47.6,-2.1
2023/01/31 20:40:00,47.6,-1.9
2023/01/31 20:50:00,47.6,-2.3
2023/01/31 21:00:00,47.5,-2.2
2023/01/31 21:10:00,47.5,-2.0
2023/01/31 21:20:00,47.4,-2.6
2023/01/31 21:30:00,47.4,-2.7
2023/01/31 21:40:00,47.4,-2.8
2023/01/31 21:50:00,47.4,-2.8
2023/01/31 22:00:00,47.4,-2.5
2023/01/31 22:10:00,47.4,-2.7
2023/01/31 22:20:00,47.5,-2.8
2023/01/31 22:30:00,47.5,-2.2
2023/01/31 22:40:00,47.5,-2.7
2023/01/31 22:50:00,47.6,-2.8
2023/01/31 23:00:00,47.6,-2.8
2023/01/31 23:10:00,47.5,-3.1
2023/01/31 23:20:00,47.5,-3.1
2023/01/31 23:30:00,47.5,-3.5
2023/01/31 23:40:00,47.5,-3.1
2023/01/31 23:50:00,47.4,-2.6
